Wind_Speed
10 9 8 8 8 8 7 8 9 10 11 11 12 12 12 11 10 10 10 10 10 9 9 9 9 9 8 7 7 6 5 5 5 5 5 5 5 5 6 6 7 7 7
10 9 9 8 8 7 7 8 8 9 10 11 11 12 12 12 11 11 11 11 10 10 10 9 9 9 8 8 7 6 6 5 4 4 4 3 3 4 5 5 5 6 6
10 9 8 8 8 8 7 7 8 8 9 9 10 11 11 12 12 12 13 12 12 11 11 10 9 8 8 7 7 6 6 5 4 4 3 2 2 2 3 4 4 5 5
10 9 9 8 8 8 7 7 7 8 8 9 10 10 11 12 12 13 13 13 13 13 12 12 11 9 8 7 7 7 6 5 5 4 3 2 1 1 2 3 3 3 4
10 9 9 8 8 7 7 7 7 8 9 10 10 11 12 12 13 14 14 14 14 14 14 13 12 11 10 9 8 8 7 6 5 5 4 3 2 1 1 1 2 3 3
10 9 9 9 9 8 8 9 10 10 11 12 12 13 13 14 14 15 15 15 16 16 16 15 14 14 13 12 11 10 9 8 7 6 5 5 3 3 2 2 2 3 3
11 11 11 11 11 11 11 11 12 13 14 15 16 16 16 16 17 17 17 17 18 18 18 17 17 16 16 16 14 13 13 12 10 9 7 7 6 5 4 3 3 4 4
13 13 12 12 13 13 14 15 16 16 17 19 19 20 20 20 20 20 20 20 20 20 20 19 19 19 18 18 18 17 16 15 14 13 11 10 9 7 7 6 6 5 6
15 15 15 15 15 16 17 18 19 20 21 22 23 24 24 24 24 24 23 23 23 23 22 22 21 21 21 21 20 20 20 19 18 17 15 14 13 11 10 9 8 8 8
17 17 18 18 19 20 21 21 22 23 24 24 25 26 26 26 26 26 26 27 26 26 25 24 24 23 23 22 23 23 23 22 22 20 19 18 17 16 14 13 12 11 11
20 20 20 21 22 23 24 24 24 25 25 26 27 27 27 28 29 29 29 29 29 29 28 27 26 26 25 25 25 25 25 25 25 24 23 21 21 20 19 17 16 15 14
23 23 23 23 24 25 25 26 26 26 27 28 28 28 29 30 30 31 31 31 31 31 30 30 29 28 28 28 27 27 26 27 27 27 26 24 24 23 22 21 20 20 18
25 25 26 26 26 27 27 27 28 29 29 30 31 31 32 32 32 33 32 32 32 33 33 33 32 31 31 30 30 29 29 29 29 29 27 25 26 25 24 23 23 23 22
27 29 30 29 29 30 30 31 32 32 32 33 34 34 34 34 35 35 34 34 33 33 35 35 35 33 33 32 32 31 31 30 29 30 28 25 26 25 24 24 24 24 24
30 31 32 31 31 32 33 35 35 36 35 36 36 37 38 37 36 36 35 36 36 35 36 37 37 36 34 34 34 32 31 31 29 29 28 27 26 26 25 24 23 24 25
32 33 34 34 34 35 36 37 38 39 39 39 40 40 39 38 38 37 35 36 37 37 38 37 39 38 36 35 34 33 32 32 30 28 28 27 27 26 24 23 24 24 24
33 34 36 36 37 37 39 40 41 41 42 42 42 42 41 40 39 38 37 36 36 37 39 39 38 38 36 35 34 35 34 33 31 30 29 28 28 27 25 24 24 23 23
33 34 36 37 38 39 40 42 44 43 44 44 44 43 42 42 40 39 37 37 37 36 37 38 39 38 37 37 36 36 36 34 33 31 30 29 28 27 25 24 24 23 23
32 34 36 38 39 40 42 43 44 45 45 44 43 42 41 41 40 39 39 38 38 36 36 37 37 38 38 38 37 36 36 34 33 32 31 31 29 28 25 24 24 23 22
32 34 36 38 40 41 42 43 44 44 44 43 42 42 41 41 41 41 40 40 39 37 36 36 36 36 36 37 37 36 35 34 33 32 31 31 30 29 26 24 23 22 21
33 35 36 38 40 42 43 43 44 43 43 44 43 43 42 42 42 42 41 40 40 38 38 37 36 35 35 35 36 35 35 35 33 33 32 31 30 29 28 26 23 23 22
33 35 36 37 39 41 42 42 43 43 44 45 45 44 43 43 43 43 42 42 42 41 39 36 36 36 35 35 34 36 37 35 33 33 32 31 30 29 28 27 25 24 22
32 33 35 36 38 40 41 42 42 43 43 44 44 44 43 43 43 44 44 43 43 42 41 39 37 36 35 35 36 37 36 35 33 32 32 31 30 29 29 28 26 25 23
32 33 35 36 38 39 41 42 43 43 44 44 44 44 43 43 43 43 44 44 43 43 42 40 39 38 36 35 36 37 37 36 35 33 33 32 31 31 31 29 27 26 24
32 34 35 36 38 39 40 42 43 44 44 44 44 44 44 44 44 44 44 44 43 43 41 40 39 38 38 37 36 37 38 37 36 35 33 32 33 33 31 30 28 27 25
33 35 36 37 38 39 40 41 42 43 43 43 44 44 44 44 44 43 42 42 42 42 41 41 40 40 39 38 37 37 37 37 37 37 35 34 34 34 33 32 30 29 28
Wind_Direction
294 295 296 299 303 307 315 322 327 330 331 331 332 334 335 337 340 344 349 356 2 8 15 18 19 16 12 7 3 2 4 11 23 36 45 55 69 83 97 108 108 103 103
298 300 302 304 305 308 314 319 323 325 326 325 326 327 330 331 332 334 337 341 347 352 359 4 8 10 9 4 358 353 351 352 3 19 36 55 74 89 98 107 113 111 110
304 305 305 304 306 309 313 316 319 320 319 319 321 324 326 326 327 327 328 330 332 336 341 346 350 354 357 357 351 345 342 337 339 353 10 40 72 98 110 114 120 120 120
307 308 306 303 305 309 312 315 318 318 317 316 316 317 318 319 319 320 320 321 322 324 327 330 332 334 336 339 339 334 332 329 322 325 332 353 20 111 132 134 133 133 135
306 309 307 306 305 307 311 315 317 316 315 314 314 314 315 315 314 313 313 312 313 315 316 317 317 316 316 316 316 315 316 316 313 306 303 307 308 297 200 173 165 166 169
305 307 307 308 307 309 312 314 313 312 311 311 311 311 312 311 311 309 308 306 305 306 306 306 306 304 302 300 298 297 297 297 298 296 295 291 284 276 266 239 214 200 203
300 303 306 308 310 311 311 311 311 310 310 309 308 308 307 306 304 303 302 301 300 300 299 297 296 295 293 290 288 286 285 285 284 285 287 283 277 270 264 256 246 233 223
299 301 306 309 311 312 312 311 309 309 309 308 307 306 305 304 302 299 298 297 296 295 294 292 289 286 285 284 282 280 279 279 278 277 276 276 274 270 265 259 254 248 239
298 301 305 307 308 308 308 308 306 307 307 306 305 303 301 301 300 297 294 293 292 291 289 287 285 282 279 278 277 276 275 275 274 273 271 270 269 266 263 260 256 252 247
300 301 303 303 304 304 304 305 304 305 305 304 303 302 300 299 297 296 293 291 289 288 287 285 282 279 277 274 273 273 273 272 272 271 270 268 265 262 261 258 256 254 252
299 299 299 300 301 300 300 302 301 302 302 302 302 300 299 299 296 294 292 291 289 287 284 282 280 277 275 272 270 269 270 270 270 269 268 264 262 260 258 258 256 253 253
298 299 299 299 299 298 299 300 299 300 300 300 301 299 298 298 296 294 291 289 287 285 282 280 278 276 272 271 269 267 267 267 268 268 266 262 260 259 257 257 255 253 253
293 296 297 298 297 297 298 297 296 297 298 298 300 300 299 298 297 297 292 289 288 285 281 279 277 274 269 267 267 265 264 264 266 266 265 263 258 256 256 256 254 253 252
289 292 293 295 295 295 295 294 295 296 297 298 298 299 298 297 295 295 293 291 289 287 284 282 278 273 269 266 264 263 262 263 264 265 263 260 256 253 254 255 256 253 249
286 287 288 290 291 293 294 294 296 296 296 296 296 297 296 295 294 294 293 293 291 289 286 283 279 274 270 266 264 261 260 263 262 263 260 254 251 252 252 255 255 252 248
282 283 285 287 289 290 291 292 294 295 294 295 295 295 294 294 294 292 292 293 292 291 287 285 282 275 270 266 264 260 258 259 260 261 256 251 249 251 251 252 253 250 248
280 281 282 284 286 288 289 291 292 292 292 291 292 291 290 290 291 289 289 291 291 291 288 284 285 277 269 267 264 260 258 257 256 255 253 250 247 247 249 249 249 248 247
279 280 282 283 284 286 287 289 290 290 291 291 290 289 288 287 287 287 287 289 290 289 288 286 285 276 270 267 265 260 257 256 254 253 251 247 244 244 245 246 246 245 245
279 281 282 283 285 285 286 287 288 289 290 290 289 288 287 285 285 285 285 287 287 286 286 285 281 277 270 266 262 259 255 254 254 253 250 246 243 243 243 244 244 244 245
282 282 283 284 285 286 286 286 288 289 289 289 288 288 286 285 284 284 283 285 284 282 283 283 281 276 270 264 260 256 253 254 254 251 248 246 245 242 240 240 241 242 244
283 284 284 285 286 287 287 287 288 288 289 288 288 288 287 285 284 283 282 282 282 281 280 279 278 274 269 264 259 254 253 252 253 251 248 244 242 239 238 235 237 239 240
286 287 287 288 289 289 289 289 289 289 289 289 289 288 287 285 283 282 282 281 280 280 279 276 274 273 269 262 258 254 253 250 249 248 246 244 239 236 235 234 232 235 237
292 292 293 293 293 293 292 291 291 291 290 290 289 288 286 284 283 281 280 279 278 277 277 274 273 272 267 261 254 252 252 249 248 246 244 242 238 234 232 232 230 229 230
300 299 298 298 297 296 295 294 294 294 293 293 292 290 289 287 285 283 282 280 278 276 275 273 271 269 264 262 256 252 251 250 244 242 241 238 235 232 230 229 228 226 224
307 306 305 304 302 300 298 298 297 297 297 296 294 293 291 289 287 285 282 281 278 276 273 270 268 265 263 260 257 252 249 246 242 240 238 235 232 230 228 226 225 222 220
313 312 311 310 308 305 303 301 300 299 298 297 295 294 293 291 288 286 283 281 279 276 273 270 266 263 260 258 256 253 248 244 241 239 235 232 230 228 226 223 221 219 217
Height
5914 5914 5914 5913 5913 5912 5911 5911 5910 5909 5909 5908 5907 5906 5906 5905 5905 5904 5903 5903 5902 5901 5900 5900 5899 5898 5897 5896 5895 5894 5894 5893 5893 5893 5892 5892 5892 5892 5893 5893 5893 5894 5894
5914 5913 5913 5913 5912 5911 5911 5910 5910 5909 5908 5908 5907 5906 5906 5905 5904 5904 5903 5903 5902 5901 5901 5900 5899 5898 5897 5896 5895 5895 5894 5894 5894 5893 5893 5893 5893 5894 5894 5894 5895 5895 5896
5913 5912 5912 5912 5911 5911 5910 5909 5909 5908 5908 5907 5907 5906 5905 5905 5904 5903 5903 5902 5902 5901 5900 5900 5899 5899 5898 5897 5896 5895 5895 5894 5894 5894 5894 5894 5894 5894 5895 5895 5896 5896 5897
5912 5912 5911 5910 5910 5910 5909 5909 5908 5908 5907 5907 5906 5905 5905 5904 5903 5903 5902 5901 5901 5900 5900 5899 5899 5898 5898 5897 5896 5895 5895 5895 5894 5894 5894 5894 5894 5895 5895 5895 5896 5897 5898
5911 5911 5910 5909 5909 5908 5908 5907 5907 5906 5906 5906 5905 5904 5904 5903 5902 5902 5901 5900 5900 5899 5899 5899 5898 5898 5897 5897 5896 5895 5895 5895 5894 5894 5894 5894 5894 5895 5895 5896 5896 5897 5898
5910 5910 5909 5908 5908 5907 5907 5906 5906 5905 5905 5904 5903 5903 5902 5902 5901 5900 5899 5899 5898 5898 5898 5897 5897 5896 5896 5896 5895 5895 5894 5894 5894 5894 5894 5894 5894 5894 5895 5895 5896 5897 5898
5909 5908 5908 5907 5907 5906 5905 5905 5904 5904 5903 5902 5901 5901 5900 5899 5898 5898 5897 5896 5896 5895 5895 5895 5895 5894 5894 5894 5894 5893 5893 5893 5893 5893 5893 5893 5893 5893 5894 5895 5895 5896 5897
5907 5906 5906 5905 5905 5904 5903 5903 5902 5901 5900 5900 5899 5898 5897 5896 5895 5894 5894 5893 5892 5892 5892 5892 5892 5892 5892 5891 5891 5891 5891 5891 5891 5892 5892 5892 5892 5892 5893 5893 5894 5895 5896
5905 5904 5904 5903 5903 5902 5901 5900 5899 5898 5897 5896 5895 5894 5893 5892 5891 5890 5889 5888 5888 5888 5887 5887 5888 5888 5888 5888 5888 5888 5888 5888 5888 5889 5890 5890 5890 5891 5891 5892 5893 5894 5895
5902 5901 5901 5900 5900 5899 5898 5897 5896 5895 5893 5892 5890 5889 5888 5887 5886 5884 5884 5883 5882 5882 5882 5882 5883 5883 5883 5884 5884 5884 5884 5885 5885 5886 5887 5887 5888 5888 5889 5890 5891 5892 5893
5899 5899 5898 5897 5897 5895 5894 5893 5892 5890 5889 5887 5886 5884 5883 5882 5880 5879 5878 5877 5876 5876 5876 5876 5877 5878 5878 5879 5879 5880 5880 5880 5880 5882 5883 5884 5884 5885 5886 5887 5888 5889 5891
5895 5895 5895 5894 5893 5891 5890 5889 5888 5886 5885 5883 5881 5879 5878 5876 5875 5873 5872 5871 5870 5869 5869 5870 5870 5871 5872 5873 5873 5874 5875 5875 5876 5877 5878 5879 5880 5881 5882 5883 5885 5886 5888
5892 5891 5890 5890 5888 5887 5886 5885 5883 5882 5880 5878 5876 5874 5872 5870 5869 5867 5865 5865 5863 5862 5862 5862 5863 5864 5865 5866 5867 5868 5869 5869 5870 5871 5873 5874 5875 5876 5878 5879 5880 5882 5884
5888 5887 5885 5885 5884 5882 5881 5879 5878 5876 5875 5872 5870 5868 5866 5864 5862 5860 5858 5857 5857 5856 5855 5854 5855 5855 5857 5858 5859 5861 5862 5863 5864 5865 5867 5869 5870 5871 5873 5874 5876 5877 5879
5883 5882 5880 5880 5879 5877 5875 5873 5872 5870 5868 5866 5864 5862 5859 5857 5855 5854 5852 5850 5848 5847 5847 5847 5847 5847 5849 5850 5851 5854 5855 5857 5858 5859 5860 5862 5863 5865 5867 5869 5870 5872 5874
5878 5877 5875 5874 5873 5872 5870 5867 5865 5863 5861 5859 5857 5854 5852 5850 5848 5847 5845 5843 5841 5839 5838 5837 5838 5838 5839 5841 5843 5845 5848 5849 5851 5853 5853 5855 5857 5859 5862 5863 5865 5867 5869
5872 5871 5869 5868 5867 5865 5863 5861 5858 5856 5853 5851 5849 5847 5845 5843 5841 5839 5838 5836 5834 5832 5830 5829 5829 5828 5830 5832 5835 5836 5838 5841 5843 5845 5847 5850 5852 5854 5856 5858 5859 5861 5864
5866 5865 5863 5861 5860 5858 5856 5853 5850 5847 5845 5843 5840 5838 5836 5834 5832 5831 5830 5829 5827 5825 5823 5821 5820 5820 5820 5823 5825 5827 5830 5833 5835 5837 5840 5843 5845 5848 5850 5852 5854 5856 5859
5860 5858 5856 5854 5852 5850 5847 5845 5842 5839 5836 5834 5831 5829 5827 5825 5823 5822 5822 5820 5819 5817 5815 5814 5813 5812 5811 5814 5816 5819 5821 5824 5827 5830 5833 5836 5839 5841 5844 5846 5848 5851 5853
5854 5852 5850 5847 5844 5841 5839 5836 5833 5830 5828 5825 5823 5820 5818 5817 5815 5813 5813 5812 5810 5809 5808 5806 5805 5804 5803 5805 5807 5810 5813 5816 5819 5822 5825 5828 5832 5834 5837 5840 5843 5845 5848
5848 5845 5842 5840 5837 5833 5831 5827 5825 5822 5819 5816 5813 5811 5809 5807 5805 5804 5802 5802 5800 5799 5799 5798 5797 5796 5796 5797 5798 5801 5805 5808 5811 5814 5817 5821 5824 5828 5831 5834 5837 5840 5843
5841 5838 5835 5832 5829 5825 5821 5818 5815 5813 5810 5806 5803 5801 5799 5797 5795 5794 5792 5791 5790 5790 5789 5789 5788 5788 5789 5789 5791 5793 5796 5800 5803 5806 5809 5813 5817 5821 5824 5828 5832 5835 5838
5834 5831 5827 5824 5820 5816 5812 5809 5805 5802 5799 5796 5793 5790 5788 5786 5784 5783 5782 5781 5780 5780 5779 5779 5779 5780 5781 5781 5782 5785 5788 5792 5795 5799 5801 5805 5809 5813 5817 5821 5825 5829 5833
5827 5823 5819 5816 5812 5807 5803 5799 5795 5791 5788 5785 5782 5779 5777 5775 5773 5771 5770 5769 5769 5769 5769 5769 5769 5770 5772 5773 5774 5777 5780 5783 5787 5791 5794 5798 5802 5806 5811 5815 5819 5823 5827
5819 5815 5811 5807 5802 5798 5793 5789 5785 5781 5777 5774 5770 5767 5765 5763 5761 5759 5758 5757 5757 5757 5757 5758 5759 5760 5761 5764 5766 5768 5770 5773 5777 5782 5786 5790 5794 5799 5804 5808 5813 5817 5822
5812 5807 5802 5798 5793 5788 5783 5779 5774 5770 5766 5763 5759 5756 5754 5751 5749 5747 5746 5745 5745 5745 5745 5747 5748 5750 5751 5754 5756 5759 5761 5764 5768 5772 5777 5782 5786 5791 5796 5801 5806 5811 5816